This is the latest recevied weather packets stored in our database for station/object SP1BMW-13. If no packets are shown the sender has not sent any weather packets the latest 1 day(s).
| Time | Temp. | Humidity | Pressure | Rain* | Wind** | Luminosity | Snow |
|---|---|---|---|---|---|---|---|
| 1777969247 | 11.67° C | 96% | 1009.8 hPa | 4.57 mm | 0.45 m/s, 45° | 97 W/m² | - |
| 1777969187 | 11.67° C | 96% | 1009.9 hPa | 4.57 mm | 0.89 m/s, 39° | 104 W/m² | - |
| 1777969127 | 11.67° C | 96% | 1009.8 hPa | 4.57 mm | 0.45 m/s, 41° | 111 W/m² | - |
| 1777969067 | 11.67° C | 96% | 1010 hPa | 4.57 mm | 0 m/s | 117 W/m² | - |
| 1777969007 | 11.67° C | 96% | 1009.9 hPa | 4.57 mm | 0.45 m/s, 95° | 120 W/m² | - |
| 1777968947 | 11.67° C | 96% | 1010 hPa | 4.57 mm | 0 m/s | 114 W/m² | - |
| 1777968887 | 11.67° C | 96% | 1009.9 hPa | 5.08 mm | 0 m/s | 111 W/m² | - |
| 1777968827 | 11.67° C | 96% | 1010.1 hPa | 5.08 mm | 0.45 m/s, 119° | 103 W/m² | - |
| 1777968767 | 11.67° C | 96% | 1010 hPa | 5.08 mm | 0 m/s | 104 W/m² | - |
| 1777968707 | 11.67° C | 96% | 1009.9 hPa | 4.83 mm | 0 m/s | 108 W/m² | - |
| 1777968647 | 11.11° C | 96% | 1010.1 hPa | 4.83 mm | 0 m/s | 111 W/m² | - |
| 1777968587 | 11.11° C | 96% | 1009.8 hPa | 5.33 mm | 0 m/s | 100 W/m² | - |
| 1777968527 | 11.11° C | 96% | 1010 hPa | 5.33 mm | 0.45 m/s, 78° | 100 W/m² | - |
| 1777968467 | 11.11° C | 96% | 1010 hPa | 5.08 mm | 0 m/s | 104 W/m² | - |
| 1777968407 | 11.11° C | 96% | 1009.8 hPa | 5.08 mm | 0 m/s | 107 W/m² | - |
| 1777968347 | 11.11° C | 96% | 1009.8 hPa | 4.83 mm | 0.45 m/s, 45° | 105 W/m² | - |
| 1777968289 | 11.11° C | 96% | 1009.9 hPa | 5.59 mm | 0.45 m/s, 43° | 95 W/m² | - |
| 1777968227 | 11.11° C | 96% | 1010 hPa | 5.33 mm | 0.45 m/s, 37° | 84 W/m² | - |
| 1777968168 | 11.11° C | 96% | 1010 hPa | 5.33 mm | 0.45 m/s, 40° | 84 W/m² | - |
| 1777968107 | 11.11° C | 96% | 1010.1 hPa | 5.33 mm | 0 m/s | 80 W/m² | - |
| 1777968047 | 11.11° C | 96% | 1010.2 hPa | 5.08 mm | 0 m/s | 72 W/m² | - |
| 1777967986 | 11.11° C | 96% | 1010.2 hPa | 5.84 mm | 0.45 m/s, 89° | 69 W/m² | - |
| 1777967927 | 11.11° C | 96% | 1010.2 hPa | 5.84 mm | 0 m/s | 67 W/m² | - |
| 1777967866 | 11.11° C | 96% | 1010 hPa | 5.59 mm | 0 m/s | 67 W/m² | - |
| 1777967806 | 11.11° C | 96% | 1010.2 hPa | 5.59 mm | 0.45 m/s, 129° | 69 W/m² | - |
* Rain latest hour (hover to see other rain measurements)
** Current wind speed in m/s (hover to see current wind gust speed)